Location: Newark
(41.6500°N, 71.4833°W)
Time: 21:57:40
(UTC+00:00)

A-11 Canister half - Pass Details

Date: 22 January 2020
Orbit: 1517 x 1683 km, 47.2° (Epoch: 19 February)

Event Time Altitude Azimuth Distance (km) Brightness Sun altitude
Rises 03:41:47 0° 205° (SSW) 4,750 - -62.9°
Reaches altitude 10° 03:45:10 10° 198° (SSW) 3,745 - -63.3°
Maximum altitude 03:53:34 38° 135° (SE) 2,198 - -64.3°
Drops below altitude 10° 04:01:48 10° 71° (ENE) 3,684 - -65.2°
Sets 04:05:05 0° 64° (ENE) 4,665 - -65.5°
